Weather History for Doha, Qatar

Change the Weather History Date:

Wednesday, April 24, 2013

  Actual Average Record
Temperature  
Mean Temperature 84 °F -  
Max Temperature 91 °F 99 °F 104 °F (2014)
Min Temperature 77 °F 75 °F 69 °F (1997)
Cooling Degree Days 19    
Growing Degree Days 34 (Base 50)    
Moisture  
Dew Point 49 °F    
Average Humidity 31    
Maximum Humidity 54    
Minimum Humidity 13    
Precipitation  
Precipitation 0.00 in 0.01 in - ()
Sea Level Pressure  
Sea Level Pressure 29.94 in    
Wind  
Wind Speed 12 mph ()    
Max Wind Speed 21 mph    
Max Gust Speed -    
Visibility 9.0 miles    
Events      
Averages and records for this station are not official NWS values.
T = Trace of Precipitation, MM = Missing Value Source: Averaged Metar Reports

Daily Weather History Graph

Daily Weather History Graph

Search for Another Location

Airport:

Trip Planner

Search our weather history database for the weather conditions in past years. The results will help you decide how hot, cold, wet, or windy it might be!

Date:

Astronomy

Apr. 24, 2013 Rise Set
Actual Time 5:03 AM AST 6:00 PM AST
Civil Twilight 4:39 AM AST 6:24 PM AST
Nautical Twilight 4:11 AM AST 6:52 PM AST
Astronomical Twilight 3:42 AM AST 7:21 PM AST
Moon 4:42 PM AST (4/24) 3:43 AM AST (4/24)
Length of Visible Light 13h 44m
Length of Day
12h 57m
Waxing Gibbous, 97% of the Moon is Illuminated
Apr 24
Waxing Gibbous
Apr 25
Full
May 2
Last Quarter
May 10
New
May 18
First Quarter

Hourly Weather History & Observations

Time (AST) Temp. Heat Index Dew Point Humidity Pressure Visibility Wind Dir Wind Speed Gust Speed Precip Events Conditions
12:00 AM 78.8 °F - 59.0 °F 51% 29.92 in - NNW 13.8 mph - N/A   Clear
1:00 AM 77.0 °F - 59.0 °F 54% 29.92 in - North 11.5 mph - N/A   Clear
2:00 AM 78.8 °F - 57.2 °F 47% 29.89 in - North 13.8 mph - N/A   Clear
3:00 AM 80 °F - 60 °F 40% 29.88 in 7 mi North 12.7 mph - -   Clear
3:00 AM 78.8 °F - 59.0 °F 51% 29.86 in - North 12.7 mph - N/A   Clear
3:30 AM 78.8 °F - 60.8 °F 54% 29.89 in - North 11.5 mph - N/A   Clear
4:00 AM 78.8 °F - 57.2 °F 47% 29.89 in - North 10.4 mph - N/A   Clear
4:30 AM 78.8 °F - 55.4 °F 44% 29.89 in - North 10.4 mph - N/A   Clear
5:00 AM 78.8 °F - 53.6 °F 42% 29.89 in - North 10.4 mph - N/A   Clear
5:30 AM 78.8 °F - 53.6 °F 42% 29.89 in - North 9.2 mph - N/A   Clear
6:00 AM 80.6 °F 80.3 °F 53.6 °F 39% 29.92 in - North 10.4 mph - N/A   Clear
6:30 AM 82.4 °F - 51.8 °F 35% 29.92 in - North 12.7 mph - N/A   Clear
7:00 AM 82.4 °F 81.4 °F 53.6 °F 37% 29.95 in - North 13.8 mph - N/A   Clear
7:30 AM 84.2 °F - 50.0 °F 30% 29.95 in - North 15.0 mph - N/A   Clear
8:00 AM 84.2 °F - 50.0 °F 30% 29.95 in - North 15.0 mph - N/A   Clear
9:00 AM 87 °F - 50 °F 18% 29.99 in 10 mi North 15.0 mph - -   Clear
9:00 AM 86.0 °F - 50.0 °F 29% 29.98 in - North 15.0 mph - N/A   Clear
9:30 AM 87.8 °F - 44.6 °F 22% 29.98 in - North 18.4 mph - N/A   Clear
10:00 AM 89.6 °F - 46.4 °F 22% 29.98 in - North 18.4 mph - N/A   Clear
10:30 AM 89.6 °F - 46.4 °F 22% 29.98 in - North 18.4 mph - N/A   Clear
11:00 AM 87.8 °F - 39.2 °F 18% 29.98 in - North 18.4 mph - N/A   Clear
11:30 AM 89.6 °F - 39.2 °F 17% 29.95 in - North 19.6 mph - N/A   Clear
12:00 PM 89.6 °F - 39.2 °F 17% 29.95 in - North 20.7 mph - N/A   Clear
12:30 PM 89.6 °F - 41.0 °F 18% 29.95 in - North 20.7 mph - N/A   Clear
1:00 PM 89.6 °F - 37.4 °F 16% 29.95 in - North 19.6 mph - N/A   Clear
1:30 PM 89.6 °F - 39.2 °F 17% 29.92 in - North 19.6 mph - N/A   Clear
2:00 PM 87.8 °F - 41.0 °F 19% 29.92 in - North 18.4 mph - N/A   Clear
2:30 PM 87.8 °F - 44.6 °F 22% 29.92 in - North 17.3 mph - N/A   Clear
3:00 PM 87 °F - 44 °F 13% 29.93 in 10 mi North 17.3 mph - -   Clear
3:00 PM 87.8 °F - 44.6 °F 22% 29.92 in - North 17.3 mph - N/A   Clear
3:30 PM 86.0 °F - 50.0 °F 29% 29.92 in - North 16.1 mph - N/A   Clear
4:00 PM 86.0 °F - 50.0 °F 29% 29.92 in - North 17.3 mph - N/A   Clear
4:30 PM 84.2 °F 82.8 °F 53.6 °F 35% 29.92 in - North 12.7 mph - N/A   Clear
5:00 PM 84.2 °F - 50.0 °F 30% 29.92 in - North 11.5 mph - N/A   Clear
5:30 PM 84.2 °F - 50.0 °F 30% 29.92 in - North 11.5 mph - N/A   Clear
6:00 PM 84.2 °F - 51.8 °F 33% 29.95 in - North 10.4 mph - N/A   Clear
6:30 PM 84.2 °F - 50.0 °F 30% 29.95 in - North 9.2 mph - N/A   Clear
7:00 PM 84.2 °F - 46.4 °F 27% 29.95 in - North 10.4 mph - N/A   Clear
7:30 PM 82.4 °F 81.4 °F 53.6 °F 37% 29.95 in - North 11.5 mph - N/A   Clear
8:00 PM 82.4 °F - 51.8 °F 35% 29.95 in - NNW 13.8 mph - N/A   Clear
9:00 PM 82 °F - 48 °F 21% 29.99 in 9 mi NNW 8.1 mph - -   Scattered Clouds
9:00 PM 82.4 °F - 48.2 °F 30% 29.98 in - NNW 8.1 mph - N/A   Clear
9:30 PM 80.6 °F - 46.4 °F 30% 29.98 in - NW 4.6 mph - N/A   Clear
10:00 PM 80.6 °F - 48.2 °F 32% 29.98 in - NNW 6.9 mph - N/A   Clear
10:30 PM 80.6 °F - 48.2 °F 32% 29.98 in - NNW 5.8 mph - N/A   Clear
11:00 PM 80.6 °F - 46.4 °F 30% 29.98 in - NNW 4.6 mph - N/A   Clear
11:30 PM 80.6 °F - 48.2 °F 32% 29.98 in - NW 3.5 mph - N/A   Clear